STARLINK-1327, 45555

Orbit data source: Space-Track

STARLINK-1327, 45555 is a payload satellite owned by SpaceX/Seattle (US) in LEO that was launched on Wed, 22 Apr 2020 UTC via an FALCON 9 launch vehicle from the Air Force Eastern Test Range (AFETR). Payloads include a variety of satellites, spacecraft, and rockets equipped with specific instruments for various scientific and technological missions. These include communications satellites like Starlink; space stations such as the ISS; scientific satellites like the Hubble; Earth observation satellites from companies like Planet Labs, Umbra, and HawkEye 360; GPS; miniature CubeSats for education and research; and military/defense satellites.

Loading next visibility...
STARLINK-1327 details
Identifier
45555, 2020-025AA
Orbit
LEO
Last TLE update16 hours ago
Origin
Flag of USSpaceX/Seattle (US)
ManufacturerSpaceX/Seattle
MissionOperational Commercial Communications
Bus & MotorSTARLINK, Unknown motor
Mass260 kg wet, ~248 kg dry
Launch date (UTC)
2020-04-22 (5 years ago)
Launch vehicle
FALCON 9
Launch site
Air Force Eastern Test Range (AFETR)
Object type
Payload
Rocket body
Debris
Shape & HBRBox + 1 Pan, 8.86 m
Radar Cross Section13.562 m², Large (>1 m²)

Expand to show TLE details & history

TLE from 16 hours ago
0 STARLINK-1327
1 45555U 20025AA  24339.75317918  .00006935  00000-0  48396-3 0  9991
2 45555  53.0566 351.3538 0001500  90.2439 269.8722 15.06404856256044
Epoch: 2024-12-04T18:04Z
Definitive object data (Epoch: 2024-12-04T18:04:34.681Z)
Latitude
Longitude6.16549°
Altitude548.079 km
Speed7.589 km/s
True Right ascension23h 25m 24s
True Declination0° 00' 00"
Sunlit
Object was in daylight at TLE epoch
Visualization TLE readout
Latitude1.40517°
Longitude4.23608°
Altitude547.882 km
Speed7.589 km/s
Apparent Right ascension21h 56m 22s
Apparent Declination-19° 55' 58"
Sunlit
Object is in daylight
Visualization observer readout
Local Sidereal Time07:58:44
Azimuth299.767° NW
Elevation-57.874°
Doppler factor1
Orbital elements
Apogee altitude548.506 km
Perigee altitude546.428 km
Semi-major axis6,925.604 km
Eccentricity0.00015
Inclination53.0566°
RAAN351.3538°
Arg. of periapsis90.2439°
True anomaly269.85501°
Mean anomaly269.8722°
Eccentric anomaly269.86361°
Mean motion3.7658 °/min
BSTAR0.00048396
Orbital period95.6 mins
Loading maneuver chart data...
Loading historical data...
Loading historical data...
Loading historical data...
Loading historical data...
Loading historical data...
Loading historical data...
Loading historical data...

STARLINK-1327 Visibility forecast

Observer location: undefined°, undefined

Span
Click to sort rows by Start time (UTC) header in descending order
Start Az.
Max El. time (UTC)
Max El. Az.
Max El.
End time (UTC)
End Az.
7 mins2024-12-05 10:29:25.672Z311.477° NW2024-12-05 10:33:25.672Z69.712° E44.554°2024-12-05 10:36:25.672Z126.42° SE
7 mins2024-12-06 03:42:25.672Z237.623° WSW2024-12-06 03:45:25.672Z319.509° NNW43.878°2024-12-06 03:49:25.672Z47.194° ENE
4 mins2024-12-06 05:24:25.672Z319.364° NNW2024-12-06 05:25:25.672Z338.56° N18.181°2024-12-06 05:28:25.672Z26.712° NE
4 mins2024-12-06 08:45:25.672Z349.239° N2024-12-06 08:47:25.672Z31.156° NE21.284°2024-12-06 08:49:25.672Z67.394° ENE
|